User: anonymous   Login
Location: Unspecified
(0.0000°N, 0.0000°E)
Time: 04:45:54
(UTC+00:00)
Language:

NATO 4A - Orbit

View from above orbital plane
View from above orbital plane
View from above satellite
View from above satellite

Ground track
Ground track

The orbit data is extracted from the following two-line orbital elements,

1 21047U 91001A   18266.64377133 -.00000229 +00000-0 +00000-0 0  9996
2 21047 013.2340 013.2200 0003970 209.7933 163.0090 00.98285527100375
Epoch (UTC): 23 September 2018 15:27:01
Eccentricity: 0.0003970
inclination: 13.2340°
perigee height: 36335 km
apogee height: 36369 km
right ascension of ascending node: 13.2200°
argument of perigee: 209.7933°
revolutions per day: 0.98285527
mean anomaly at epoch: 163.0090°
orbit number at epoch: 10037

The dashed part of the orbit path shows where the satellite is in the earth's shadow,  

DLR